TimeCEST,TemperatureF,Dew PointF,Humidity,Sea Level PressureIn,VisibilityMPH,Wind Direction,Wind SpeedMPH,Gust SpeedMPH,PrecipitationIn,Events,Conditions,WindDirDegrees,DateUTC
12:50 AM,78.8,48.2,34,29.95,-9999.0,North,4.6,-,N/A,,Clear,350,2013-07-31 22:50:00
1:20 AM,78.8,50.0,36,29.95,-9999.0,North,4.6,-,N/A,,Clear,360,2013-07-31 23:20:00
1:50 AM,78.8,50.0,36,29.95,-9999.0,North,6.9,-,N/A,,Clear,10,2013-07-31 23:50:00
2:20 AM,78.8,50.0,36,29.95,-9999.0,NNE,5.8,-,N/A,,Clear,20,2013-08-01 00:20:00
2:50 AM,77.0,50.0,39,29.95,-9999.0,North,5.8,-,N/A,,Clear,350,2013-08-01 00:50:00
3:20 AM,77.0,50.0,39,29.95,-9999.0,North,8.1,-,N/A,,Clear,360,2013-08-01 01:20:00
3:50 AM,77.0,50.0,39,29.95,-9999.0,North,6.9,-,N/A,,Clear,10,2013-08-01 01:50:00
4:20 AM,77.0,51.8,41,29.95,-9999.0,North,5.8,-,N/A,,Clear,360,2013-08-01 02:20:00
4:50 AM,77.0,51.8,41,29.95,-9999.0,North,5.8,-,N/A,,Clear,360,2013-08-01 02:50:00
5:20 AM,77.0,53.6,44,29.95,-9999.0,NNW,5.8,-,N/A,,Clear,340,2013-08-01 03:20:00
6:20 AM,75.2,55.4,50,29.95,-9999.0,NNE,8.1,-,N/A,,Clear,30,2013-08-01 04:20:00
6:50 AM,77.0,55.4,47,29.95,-9999.0,NNE,8.1,-,N/A,,Clear,20,2013-08-01 04:50:00
7:20 AM,78.8,57.2,47,29.95,-9999.0,NNE,6.9,-,N/A,,Clear,30,2013-08-01 05:20:00
7:50 AM,80.6,55.4,42,29.95,-9999.0,NNE,9.2,-,N/A,,Clear,30,2013-08-01 05:50:00
8:20 AM,82.4,57.2,42,29.98,-9999.0,ENE,9.2,-,N/A,,Clear,60,2013-08-01 06:20:00
8:50 AM,82.4,55.4,39,29.98,-9999.0,ENE,11.5,-,N/A,,Clear,60,2013-08-01 06:50:00
9:20 AM,82.4,55.4,39,29.98,-9999.0,NE,13.8,-,N/A,,Clear,50,2013-08-01 07:20:00
9:50 AM,84.2,55.4,37,29.98,-9999.0,ENE,12.7,-,N/A,,Clear,60,2013-08-01 07:50:00
10:20 AM,86.0,55.4,35,29.98,-9999.0,NE,17.3,-,N/A,,Clear,40,2013-08-01 08:20:00
10:50 AM,86.0,57.2,37,29.98,-9999.0,NE,18.4,-,N/A,,Clear,40,2013-08-01 08:50:00
11:20 AM,87.8,55.4,33,29.98,-9999.0,NE,15.0,-,N/A,,Clear,50,2013-08-01 09:20:00
11:50 AM,87.8,53.6,31,29.98,-9999.0,NE,15.0,-,N/A,,Clear,40,2013-08-01 09:50:00
12:20 PM,89.6,53.6,29,29.98,-9999.0,NE,16.1,-,N/A,,Clear,50,2013-08-01 10:20:00
12:50 PM,89.6,53.6,29,29.98,-9999.0,NE,15.0,-,N/A,,Clear,50,2013-08-01 10:50:00
1:20 PM,91.4,55.4,29,29.95,-9999.0,NE,10.4,-,N/A,,Clear,50,2013-08-01 11:20:00
1:50 PM,91.4,53.6,28,29.95,-9999.0,ENE,12.7,-,N/A,,Clear,60,2013-08-01 11:50:00
2:20 PM,91.4,53.6,28,29.95,-9999.0,ENE,12.7,-,N/A,,Clear,60,2013-08-01 12:20:00
2:50 PM,91.4,51.8,26,29.95,-9999.0,ENE,12.7,-,N/A,,Clear,60,2013-08-01 12:50:00
3:20 PM,91.4,53.6,28,29.95,-9999.0,NE,12.7,-,N/A,,Clear,40,2013-08-01 13:20:00
3:50 PM,91.4,53.6,28,29.95,-9999.0,NE,13.8,-,N/A,,Clear,50,2013-08-01 13:50:00
4:20 PM,91.4,53.6,28,29.95,-9999.0,ENE,16.1,-,N/A,,Clear,60,2013-08-01 14:20:00
4:50 PM,91.4,51.8,26,29.95,-9999.0,ENE,11.5,-,N/A,,Clear,60,2013-08-01 14:50:00
5:20 PM,91.4,50.0,24,29.95,-9999.0,ENE,13.8,-,N/A,,Clear,70,2013-08-01 15:20:00
5:50 PM,91.4,51.8,26,29.95,-9999.0,ENE,11.5,-,N/A,,Clear,70,2013-08-01 15:50:00
6:20 PM,91.4,53.6,28,29.95,-9999.0,ENE,13.8,-,N/A,,Clear,70,2013-08-01 16:20:00
6:50 PM,89.6,51.8,27,29.95,-9999.0,ENE,11.5,-,N/A,,Clear,70,2013-08-01 16:50:00
7:20 PM,89.6,51.8,27,29.95,-9999.0,ENE,11.5,-,N/A,,Clear,70,2013-08-01 17:20:00
7:50 PM,87.8,51.8,29,29.95,-9999.0,ENE,8.1,-,N/A,,Clear,60,2013-08-01 17:50:00
8:20 PM,86.0,51.8,31,29.98,-9999.0,NE,8.1,-,N/A,,Clear,50,2013-08-01 18:20:00
9:20 PM,84.2,51.8,33,29.98,-9999.0,ENE,6.9,-,N/A,,Clear,60,2013-08-01 19:20:00
9:50 PM,82.4,51.8,35,30.01,-9999.0,ENE,4.6,-,N/A,,Clear,60,2013-08-01 19:50:00
10:20 PM,82.4,51.8,35,30.01,-9999.0,ENE,3.5,-,N/A,,Clear,70,2013-08-01 20:20:00
10:50 PM,82.4,51.8,35,30.01,-9999.0,ENE,4.6,-,N/A,,Clear,60,2013-08-01 20:50:00
11:20 PM,80.6,53.6,39,30.01,-9999.0,ENE,5.8,-,N/A,,Clear,60,2013-08-01 21:20:00
11:50 PM,80.6,53.6,39,30.01,-9999.0,East,6.9,-,N/A,,Clear,80,2013-08-01 21:50:00